TimePDT,TemperatureF,Dew PointF,Humidity,Sea Level PressureIn,VisibilityMPH,Wind Direction,Wind SpeedMPH,Gust SpeedMPH,PrecipitationIn,Events,Conditions,WindDirDegrees,DateUTC
12:53 AM,79.0,53.1,40,29.92,10.0,NW,9.2,-,N/A,,Clear,310,2013-07-10 07:53:00
1:53 AM,73.9,53.1,48,29.91,10.0,West,5.8,-,N/A,,Clear,280,2013-07-10 08:53:00
2:53 AM,66.9,54.0,63,29.91,10.0,Calm,Calm,-,N/A,,Clear,0,2013-07-10 09:53:00
3:53 AM,62.1,53.1,72,29.91,10.0,Calm,Calm,-,N/A,,Clear,0,2013-07-10 10:53:00
4:53 AM,64.0,53.1,67,29.91,10.0,WSW,5.8,-,N/A,,Clear,250,2013-07-10 11:53:00
5:53 AM,64.9,53.1,65,29.91,10.0,WSW,6.9,-,N/A,,Clear,250,2013-07-10 12:53:00
6:53 AM,70.0,55.0,59,29.92,10.0,Calm,Calm,-,N/A,,Clear,0,2013-07-10 13:53:00
7:53 AM,77.0,52.0,42,29.91,10.0,NNW,5.8,-,N/A,,Clear,330,2013-07-10 14:53:00
8:53 AM,81.0,51.1,35,29.91,10.0,Variable,6.9,-,N/A,,Clear,0,2013-07-10 15:53:00
9:53 AM,86.0,50.0,29,29.89,10.0,North,9.2,-,N/A,,Clear,10,2013-07-10 16:53:00
10:53 AM,87.1,50.0,28,29.88,10.0,WNW,3.5,-,N/A,,Clear,290,2013-07-10 17:53:00
11:53 AM,91.9,48.0,22,29.86,10.0,NNE,4.6,-,N/A,,Clear,30,2013-07-10 18:53:00
12:53 PM,91.9,46.0,21,29.84,10.0,Calm,Calm,-,N/A,,Clear,0,2013-07-10 19:53:00
1:53 PM,93.9,46.9,20,29.81,10.0,Variable,5.8,-,N/A,,Clear,0,2013-07-10 20:53:00
2:53 PM,96.1,46.0,18,29.79,10.0,Variable,5.8,-,N/A,,Clear,0,2013-07-10 21:53:00
3:53 PM,97.0,41.0,14,29.78,10.0,NNW,5.8,-,N/A,,Clear,340,2013-07-10 22:53:00
4:53 PM,97.0,39.0,13,29.75,10.0,NNW,16.1,21.9,N/A,,Clear,340,2013-07-10 23:53:00
5:53 PM,93.0,44.1,18,29.75,10.0,WNW,13.8,19.6,N/A,,Clear,290,2013-07-11 00:53:00
6:53 PM,90.0,37.9,16,29.75,10.0,WNW,13.8,23.0,N/A,,Clear,290,2013-07-11 01:53:00
7:53 PM,84.9,37.0,18,29.76,10.0,West,12.7,-,N/A,,Clear,270,2013-07-11 02:53:00
8:53 PM,78.1,39.0,25,29.77,10.0,NW,9.2,-,N/A,,Clear,310,2013-07-11 03:53:00
9:53 PM,77.0,48.0,36,29.81,10.0,NNW,13.8,-,N/A,,Clear,340,2013-07-11 04:53:00
10:53 PM,73.0,48.0,41,29.82,10.0,NW,16.1,-,N/A,,Clear,320,2013-07-11 05:53:00
11:53 PM,71.1,48.0,44,29.83,10.0,North,11.5,16.1,N/A,,Clear,350,2013-07-11 06:53:00